Terug naar catalogus

QB50P2

ActiefWetenschapPO
NORAD 40032·PAYLOAD·🇧🇪 Belgium

Gelanceerd Jun 19, 2014 vanaf Dombarovsky

Loading…

Volgende Passages (komende 24 uur)

TLE

VersSource: Space-Track

Epoch: Sep 13, 2026, 13:32 UTC

1 40032U 14033Y   26256.56424095  .00005612  00000-0  29456-3 0  9999
2 40032  98.0801 259.0437 0006062 224.1911 135.8836 15.16169190666057

Volg QB50P2 in realtime met AllMySat

Download on the App Store